Tracking 27124 objects as of 31-Mar-2023
HD Live streaming from Space Station
objects crossing your sky now

STARLINK-3390

Track STARLINK-3390 now!
10-day predictions
STARLINK-3390 is classified as:


NORAD ID: 51119
Int'l Code: 2022-005R
Perigee: 546.0 km
Apogee: 547.7 km
Inclination: 53.2 °
Period: 95.4 minutes
Semi major axis: 6917 km
RCS: Unknown
Launch date: January 19, 2022
Source: United States (US)
Launch site: AIR FORCE EASTERN TEST RANGE (AFETR)
Your satellite tracking list
Your tracking list is empty




NASA's NSSDC Master Catalog

Two Line Element Set (TLE):
1 51119U 22005R   23090.24828405  .00023264  00000-0  14746-2 0  9994
2 51119  53.2161  72.4724 0001165  94.9802 265.1323 15.08849198 67781
Source of the keplerian elements: AFSPC